Location: Krasnoyarskiy Pitomnik
(51.1333°N, 71.6167°E)
Time: 19:47:55
(UTC+00:00)

Envisat - Pass Details

Date: 08 March 2024
Orbit: 762 x 764 km, 98.3° (Epoch: 13 April)

Event Time Altitude Azimuth Distance (km) Brightness Sun altitude
Rises 00:54:52 0° 2° (N) 3,243 6.3 -8.3°
Reaches altitude 10° 00:58:32 10° 335° (NNW) 2,311 5.3 -7.7°
Maximum altitude 01:00:36 13° 310° (NW) 2,131 4.9 -7.4°
Drops below altitude 10° 01:02:42 10° 286° (WNW) 2,305 4.9 -7.1°
Enters shadow 01:03:30 - 278° (W) 2,458 5.0 -7.0°
